CW4778 Auckland NZ current weather conditions

sailwx.info

Wind from 295 at 1 knots gusting 6

Air temperature 17.8° C
Dewpoint 15.6° C

Last reported at 2015-Mar-29 08:48 UTC.
Time now 2015-Mar-29 09:28 UTC

Location: S 36°52' E 174°44'.
View on Google Maps.

See reports from other nearby stations

  
Tides and Currents Weather Stations Pressure Air Temp Water Temp Dewpoint Dewpoint Depression Visibility Wind Speed Wind Dir Waves Ship Positions
date/time (UTC)wind fromknots sea level pressurealtimeterstation pressurevisibilityair tempwater tempwave heightnotes
2015-Mar-29 08:48 295 1 gusting 6 17.8
2015-Mar-29 08:38 295 3 gusting 7 17.2
2015-Mar-29 08:28 282 4 gusting 8 17.2
2015-Mar-29 08:18 300 4 gusting 7 17.8
2015-Mar-29 08:08 336 2 gusting 6 17.2
2015-Mar-29 07:58 283 4 gusting 7 17.2
2015-Mar-29 07:38 287 2 gusting 7 17.8
2015-Mar-29 07:28 273 1 gusting 4 17.8
2015-Mar-29 07:18 253 1 gusting 7 18.3
2015-Mar-29 07:08 298 4 gusting 10 18.9
2015-Mar-29 06:58 319 4 gusting 7 18.3
2015-Mar-29 06:48 326 4 gusting 7 18.9
2015-Mar-29 06:38 300 4 gusting 7 18.9
2015-Mar-29 06:28 291 4 gusting 10 18.9
2015-Mar-29 06:18 256 4 gusting 8 18.9
2015-Mar-29 06:08 290 3 gusting 13 19.4
2015-Mar-29 05:58 282 7 gusting 14 19.4
2015-Mar-29 05:48 277 4 gusting 7 19.4
2015-Mar-29 05:38 274 5 gusting 11 20.0
2015-Mar-29 05:28 276 5 gusting 11 20.0
2015-Mar-29 05:18 247 6 gusting 10 20.0
2015-Mar-29 05:08 286 3 gusting 12 20.6
2015-Mar-29 04:58 256 4 gusting 13 20.6
2015-Mar-29 04:48 277 6 gusting 13 20.6
2015-Mar-29 04:38 253 6 gusting 13 21.1
2015-Mar-29 04:28 279 4 gusting 13 21.1
2015-Mar-29 04:08 265 7 gusting 12 22.2
2015-Mar-29 03:58 318 8 gusting 17 22.2
2015-Mar-29 03:48 272 8 gusting 17 22.2
2015-Mar-29 03:38 261 7 gusting 15 22.2
2015-Mar-29 03:28 272 6 gusting 14 22.8
2015-Mar-29 03:18 332 5 gusting 14 22.2
2015-Mar-29 03:08 283 7 gusting 13 22.2
2015-Mar-29 02:58 276 6 gusting 13 22.2
2015-Mar-29 02:48 244 8 gusting 19 22.2
2015-Mar-29 02:38 332 7 gusting 14 22.2
2015-Mar-29 02:28 236 6 gusting 13 22.8
2015-Mar-29 02:18 299 6 gusting 14 22.8
2015-Mar-29 02:08 261 6 gusting 14 22.2
2015-Mar-29 01:58 272 5 gusting 10 21.7
2015-Mar-29 01:48 270 5 gusting 12 21.1
2015-Mar-29 01:38 264 8 gusting 17 22.2
2015-Mar-29 01:28 294 10 gusting 14 22.8
2015-Mar-29 01:18 275 6 gusting 13 23.3
2015-Mar-29 01:08 286 7 gusting 15 23.9
2015-Mar-29 00:48 283 6 gusting 11 22.8
2015-Mar-29 00:38 284 7 gusting 13 23.9
2015-Mar-29 00:28 316 5 gusting 12 23.9
2015-Mar-29 00:18 253 6 gusting 13 22.8
2015-Mar-29 00:08 261 5 gusting 12 23.9
2015-Mar-28 23:48 292 6 gusting 12 22.8
2015-Mar-28 23:28 25.0
2015-Mar-28 23:18 331 4 gusting 10 23.9
2015-Mar-28 23:08 324 6 gusting 10 23.9
2015-Mar-28 22:58 272 5 gusting 10 23.3
2015-Mar-28 22:48 240 6 gusting 11 22.8
2015-Mar-28 22:38 22.2
2015-Mar-28 22:28 294 4 gusting 7 22.2
2015-Mar-28 22:18 284 2 gusting 7 21.1
2015-Mar-28 22:08 288 2 gusting 7 20.6
2015-Mar-28 21:58 275 3 gusting 6 20.0
2015-Mar-28 21:48 268 3 gusting 7 18.9
2015-Mar-28 21:38 227 1 gusting 5 18.9
2015-Mar-28 21:28 261 2 gusting 5 18.9
2015-Mar-28 21:18 259 1 gusting 4 17.8
2015-Mar-28 21:08 249 0 gusting 5 17.8
2015-Mar-28 20:58 244 0 gusting 6 17.8
2015-Mar-28 20:48 238 1 gusting 8 17.2
2015-Mar-28 20:28 277 1 gusting 6 17.8
2015-Mar-28 20:18 288 2 gusting 7 17.8
2015-Mar-28 20:08 294 6 gusting 7 17.8
2015-Mar-28 19:38 319 4 gusting 7 17.8
2015-Mar-28 19:28 328 17.8
2015-Mar-28 19:08 276 0 gusting 6 17.8
2015-Mar-28 18:58 326 2 gusting 6 17.8
2015-Mar-28 18:48 297 2 gusting 6 17.8
2015-Mar-28 18:38 293 4 gusting 7 17.8
2015-Mar-28 18:28 319 2 gusting 6 17.8
2015-Mar-28 18:18 332 2 gusting 4 17.8
2015-Mar-28 18:08 330 1 gusting 6 17.8
2015-Mar-28 17:58 345 1 gusting 5 17.8
2015-Mar-28 17:48 332 1 gusting 4 17.8
2015-Mar-28 17:38 330 1 gusting 5 17.2
2015-Mar-28 17:28 348 2 gusting 6 17.8
2015-Mar-28 17:18 318 2 gusting 6 17.8
2015-Mar-28 17:08 357 0 gusting 4 17.8
2015-Mar-28 16:58 314 17.8
2015-Mar-28 16:38 314 17.2
2015-Mar-28 16:28 314 17.2
2015-Mar-28 16:18 317 17.2
2015-Mar-28 16:08 316 17.2
2015-Mar-28 15:48 337 17.2
2015-Mar-28 14:58 300 17.2
2015-Mar-28 14:38 299 17.8
2015-Mar-28 14:28 304 17.8
2015-Mar-28 14:08 303 0 gusting 2 17.8
2015-Mar-28 13:58 299 17.8
2015-Mar-28 13:48 292 0 gusting 2 17.8
2015-Mar-28 13:38 324 17.8
2015-Mar-28 13:28 325 17.8
2015-Mar-28 13:18 291 17.8
2015-Mar-28 12:58 290 17.8
2015-Mar-28 12:48 291 0 gusting 4 17.8
2015-Mar-28 12:38 290 1 gusting 5 17.8
2015-Mar-28 12:28 304 0 gusting 4 17.8
2015-Mar-28 12:18 306 1 gusting 5 17.8
2015-Mar-28 12:08 290 2 gusting 5 17.8
2015-Mar-28 11:58 299 0 gusting 4 17.8
2015-Mar-28 11:48 352 1 gusting 6 18.3
2015-Mar-28 11:38 334 0 gusting 6 18.3
2015-Mar-28 11:28 323 17.8
2015-Mar-28 11:18 322 17.8
2015-Mar-28 11:08 322 17.8
2015-Mar-28 10:58 323 17.8
2015-Mar-28 10:48 323 17.8
2015-Mar-28 10:38 026 17.8
2015-Mar-28 10:28 026 18.3
2015-Mar-28 10:18 025 1 gusting 2 18.3
2015-Mar-28 10:08 025 18.3
2015-Mar-28 09:58 027 18.3
2015-Mar-28 09:48 028 18.3
2015-Mar-28 09:38 027 18.3
2015-Mar-28 09:28 026 18.3
2015-Mar-28 09:08 026 18.3
2015-Mar-28 08:58 027 18.9
2015-Mar-28 08:48 026 18.9
2015-Mar-28 08:38 027 18.9
2015-Mar-28 08:28 026 18.9
2015-Mar-28 08:18 026 18.9
2015-Mar-28 08:08 026 18.9
2015-Mar-28 07:58 027 18.9
2015-Mar-28 07:48 026 18.9
2015-Mar-28 07:38 027 18.9
2015-Mar-28 07:08 027 18.9
2015-Mar-28 06:58 027 18.9
2015-Mar-28 06:48 027 18.9
2015-Mar-28 06:38 026 18.9
2015-Mar-28 06:28 026 18.9
2015-Mar-28 06:18 026 19.4
2015-Mar-28 06:08 027 19.4
2015-Mar-28 05:58 027 0 gusting 2 19.4
2015-Mar-28 05:38 191 20.0
2015-Mar-28 05:28 189 20.0
2015-Mar-28 05:18 238 20.0
2015-Mar-28 04:58 240 2 gusting 6 20.0
2015-Mar-28 04:38 246 3 gusting 5 20.0
2015-Mar-28 04:28 251 1 gusting 5 20.6
2015-Mar-28 04:18 049 1 gusting 6 20.6
2015-Mar-28 04:08 048 4 gusting 8 21.1
2015-Mar-28 03:58 343 3 gusting 11 21.1
2015-Mar-28 03:38 043 3 gusting 7 21.1
2015-Mar-28 03:28 024 3 gusting 10 21.1
2015-Mar-28 03:08 009 6 gusting 10 21.1
2015-Mar-28 02:58 038 6 gusting 10 21.7
2015-Mar-28 02:48 027 5 gusting 10 21.1
2015-Mar-28 02:38 011 5 gusting 8 21.7
2015-Mar-28 02:28 040 5 gusting 12 22.2
2015-Mar-28 02:18 036 5 gusting 11 22.2
2015-Mar-28 02:08 041 6 gusting 12 22.2
2015-Mar-28 01:58 036 6 gusting 11 22.2
2015-Mar-28 01:48 353 6 gusting 8 22.8
2015-Mar-28 01:38 017 4 gusting 10 22.2
2015-Mar-28 01:28 033 6 gusting 8 21.7
2015-Mar-28 01:18 057 4 gusting 7 20.6
2015-Mar-28 00:58 046 3 gusting 6 20.0
2015-Mar-28 00:48 009 4 gusting 6 19.4
2015-Mar-28 00:38 043 2 gusting 6 19.4
2015-Mar-28 00:28 054 2 gusting 6 18.9
2015-Mar-27 23:48 264 0 gusting 4 19.4
2015-Mar-27 23:38 267 1 gusting 6 20.0
2015-Mar-27 23:28 300 4 gusting 7 21.1
2015-Mar-27 23:08 029 7 gusting 12 22.2
2015-Mar-27 22:48 355 5 gusting 10 20.6
2015-Mar-27 22:38 053 7 gusting 10 20.6
2015-Mar-27 22:28 018 2 gusting 7 20.6
2015-Mar-27 22:18 033 4 gusting 10 20.6
2015-Mar-27 22:08 045 4 gusting 8 21.1
2015-Mar-27 21:58 039 6 gusting 8 21.7
2015-Mar-27 21:48 037 5 gusting 12 21.7
2015-Mar-27 21:38 049 4 gusting 11 22.2
2015-Mar-27 21:18 005 6 gusting 11 21.1
2015-Mar-27 20:58 035 6 gusting 11 21.1
2015-Mar-27 20:48 008 4 gusting 10 20.6
2015-Mar-27 20:38 005 7 gusting 11 20.0
2015-Mar-27 20:28 046 3 gusting 8 20.0
2015-Mar-27 20:18 039 2 gusting 7 20.0
2015-Mar-27 19:58 051 3 gusting 6 19.4
2015-Mar-27 19:48 047 0 gusting 5 19.4
2015-Mar-27 19:38 046 1 gusting 5 18.9
2015-Mar-27 19:18 049 1 gusting 6 18.3
2015-Mar-27 19:08 060 1 gusting 4 18.3
2015-Mar-27 18:58 050 0 gusting 5 18.3
2015-Mar-27 18:48 051 18.3
2015-Mar-27 18:38 051 0 gusting 5 18.3
2015-Mar-27 18:28 050 2 gusting 6 18.3
2015-Mar-27 18:18 056 2 gusting 6 18.3
2015-Mar-27 18:08 061 2 gusting 5 18.3
2015-Mar-27 17:58 051 18.3
2015-Mar-27 17:48 050 2 gusting 6 18.3
2015-Mar-27 17:38 049 1 gusting 6 18.9
2015-Mar-27 17:28 070 2 gusting 7 18.9
2015-Mar-27 17:18 058 2 gusting 6 18.9
2015-Mar-27 17:08 346 0 gusting 5 18.3
2015-Mar-27 16:58 304 0 gusting 4 18.3
2015-Mar-27 16:38 050 0 gusting 5 18.3
2015-Mar-27 16:28 064 2 gusting 6 18.3
2015-Mar-27 16:18 063 4 gusting 7 18.3
2015-Mar-27 15:58 067 4 gusting 7 18.3
2015-Mar-27 15:48 074 4 gusting 7 18.3
2015-Mar-27 15:28 067 2 gusting 6 18.9
2015-Mar-27 15:18 051 1 gusting 7 18.9
2015-Mar-27 15:08 053 4 gusting 6 18.9
2015-Mar-27 14:58 330 18.9
2015-Mar-27 14:48 322 0 gusting 4 18.9
2015-Mar-27 14:38 340 18.9
2015-Mar-27 14:28 334 18.9
2015-Mar-27 14:18 320 1 gusting 5 18.9
2015-Mar-27 14:08 040 0 gusting 2 18.9
2015-Mar-27 13:58 041 0 gusting 1 18.9
2015-Mar-27 13:48 041 0 gusting 2 18.9
2015-Mar-27 13:38 040 18.9
2015-Mar-27 13:28 043 0 gusting 1 18.9
2015-Mar-27 13:18 042 18.9
2015-Mar-27 13:08 042 1 gusting 4 18.9
2015-Mar-27 12:58 043 2 gusting 5 18.9
2015-Mar-27 12:48 044 0 gusting 4 18.9
2015-Mar-27 12:38 039 1 gusting 5 18.9
2015-Mar-27 12:28 030 1 gusting 6 18.9
2015-Mar-27 12:18 037 0 gusting 4 18.9
2015-Mar-27 12:08 015 1 gusting 4 18.9
2015-Mar-27 11:58 009 0 gusting 4 18.9
2015-Mar-27 11:48 001 0 gusting 2 18.9
2015-Mar-27 11:38 18.3
2015-Mar-27 11:28 18.3
2015-Mar-27 11:18 18.3
2015-Mar-27 11:08 18.3
2015-Mar-27 10:48 009 2 gusting 5 18.9
2015-Mar-27 10:38 001 1 gusting 5 18.9
2015-Mar-27 10:28 010 1 gusting 5 18.9
2015-Mar-27 10:18 356 3 gusting 6 19.4
2015-Mar-27 10:08 355 2 gusting 4 19.4
2015-Mar-27 09:58 357 0 gusting 4 19.4
2015-Mar-27 09:48 357 0 gusting 5 18.9
2015-Mar-27 09:38 005 1 gusting 6 18.9
2015-Mar-27 09:28 359 2 gusting 5 18.9
2015-Mar-27 09:18 354 18.9